Theta_e
319 323 322 324 327 331 333 333 334 332 329 321 319 320 319 323 324 322 321 321 323 321 319 319 319 319 320 319 320 320 321 321 323 320 322 332 329 329 326 320 321 323 325 324 335 342 338 339 338 335 337 338 340 343 342 342 342 341 341 341 341 341 341 341 342 343 342 342 342 343 343 342 341 341 340 339 339 338 338 338 338 338 335 331 330 328 329 331 328 326 329 327 330 337 336 336 337
321 327 324 325 327 332 337 333 331 328 322 317 318 320 319 324 323 321 321 320 321 320 320 319 319 319 319 320 320 319 321 322 320 321 323 323 326 327 318 313 314 318 329 328 328 339 342 341 339 337 336 338 339 341 342 343 342 342 341 341 340 341 342 343 344 344 343 342 343 343 342 342 341 340 340 339 339 339 338 338 338 339 337 334 333 332 332 334 333 330 331 331 333 336 336 336 336
319 326 327 328 330 332 336 332 328 322 317 317 318 321 322 322 321 321 320 319 320 318 320 319 319 319 319 319 318 318 320 320 318 319 322 326 329 326 315 311 314 317 328 330 328 332 341 343 341 340 337 337 339 340 342 342 342 342 342 341 340 341 342 343 344 344 344 343 342 342 341 341 340 339 339 339 339 339 339 339 338 338 338 336 335 335 335 335 335 335 333 332 334 336 335 336 336
319 326 328 329 333 334 335 334 329 319 315 316 317 321 322 321 320 319 319 319 320 319 319 319 319 319 319 318 318 318 318 318 319 319 322 330 330 323 315 312 316 320 323 327 332 332 337 342 343 343 340 338 338 340 342 342 342 341 342 342 342 342 342 343 343 344 343 343 342 341 341 340 340 339 339 339 339 339 338 339 339 339 338 338 337 336 337 336 336 337 336 332 334 337 335 336 337
323 328 327 327 336 333 330 330 325 319 315 317 317 320 322 320 319 318 319 320 319 318 318 318 318 318 318 318 318 318 319 319 319 320 323 326 321 317 313 314 318 320 321 323 330 334 337 340 342 343 342 340 338 339 340 342 342 341 341 342 342 342 342 342 341 343 343 343 342 341 340 340 339 339 339 339 339 339 338 338 338 339 338 337 337 336 337 339 338 337 338 336 335 338 337 337 338
325 328 326 326 334 329 326 324 320 319 318 320 320 319 320 318 318 318 319 319 319 319 318 318 317 316 318 318 318 320 320 319 320 321 322 320 313 313 316 317 320 320 320 319 327 334 335 337 339 341 342 341 339 337 337 340 341 341 341 341 342 342 342 342 341 341 342 342 341 340 339 339 339 338 339 338 338 338 338 338 337 338 339 338 337 336 336 338 340 339 339 339 338 338 339 339 340
322 325 328 329 331 326 327 323 318 320 319 321 320 319 319 318 318 318 318 319 319 319 318 318 316 316 318 317 319 321 320 319 320 318 316 315 312 315 317 318 322 323 321 319 327 335 335 334 331 333 337 339 340 338 337 337 338 339 340 340 341 342 342 342 341 340 341 341 341 340 339 339 339 338 338 338 337 337 337 337 338 338 339 338 338 337 336 337 339 340 339 339 339 340 340 340 340
321 324 328 329 329 327 327 323 320 321 320 320 319 319 318 317 318 318 318 318 317 318 318 317 316 316 317 316 320 321 319 318 317 314 313 314 314 316 316 317 320 322 322 320 324 331 332 329 325 324 326 330 334 336 337 337 337 338 338 339 340 341 342 342 341 341 341 341 340 340 340 339 338 338 338 338 337 336 336 337 337 337 338 338 337 336 336 336 338 340 341 339 339 340 341 341 340
322 324 327 328 329 328 324 322 322 321 320 319 318 319 318 317 317 317 318 318 317 317 316 316 316 316 316 315 320 321 318 317 316 314 316 317 317 317 318 319 319 320 321 320 320 325 326 324 323 322 322 323 326 330 333 335 337 338 338 339 340 341 341 342 342 341 340 341 340 340 340 338 337 337 337 337 337 336 336 336 336 336 336 336 336 336 335 335 336 338 340 339 339 339 341 341 341
323 324 327 327 325 324 320 320 323 321 320 319 318 318 317 317 317 318 318 317 317 317 316 315 316 315 315 316 320 319 315 316 315 316 318 319 320 319 319 320 321 321 320 320 321 323 324 324 324 323 323 324 325 327 329 331 334 337 339 339 339 340 340 340 341 340 340 341 339 339 340 338 336 337 336 336 336 336 336 335 335 336 336 336 336 334 333 335 336 337 339 339 339 339 341 341 341
325 325 326 326 323 319 316 318 322 322 320 319 318 317 317 317 317 317 317 317 317 316 315 315 315 314 314 319 321 317 314 315 315 316 316 318 320 320 321 322 322 324 323 322 325 326 326 327 327 327 327 327 327 326 327 328 331 335 338 339 339 339 339 339 340 340 340 340 339 339 340 339 336 335 336 336 336 336 335 335 335 337 336 336 335 333 333 336 336 337 338 338 339 339 340 341 341
326 328 326 325 323 319 316 318 320 322 321 320 318 317 316 317 317 316 316 316 316 315 314 314 314 314 314 318 319 315 314 315 314 315 314 315 317 319 320 321 321 323 324 324 326 327 327 328 329 330 330 330 329 328 328 328 329 332 335 337 338 339 339 339 340 340 341 340 339 339 340 338 336 335 336 335 336 337 336 335 335 336 336 336 333 331 333 335 335 335 337 338 339 339 340 340 341
324 328 326 324 325 321 319 320 321 322 322 320 317 316 317 316 316 316 317 316 315 315 314 314 314 315 315 315 316 313 313 313 312 312 312 313 314 315 315 316 315 316 318 318 319 319 320 324 327 329 330 330 330 331 331 330 329 330 333 334 335 337 338 339 340 340 341 340 339 339 339 338 336 336 336 335 335 336 336 336 335 334 334 334 331 330 334 334 334 334 335 337 339 339 339 340 341
324 327 324 325 327 321 321 321 322 321 320 320 317 317 317 316 316 316 316 315 315 314 313 314 314 315 314 315 314 311 311 311 311 311 311 312 312 313 312 313 313 313 314 313 314 313 313 316 319 324 327 328 330 331 331 331 332 331 332 332 333 334 336 338 339 339 339 339 338 337 337 337 337 337 336 335 335 335 335 335 336 335 333 332 331 331 333 333 332 331 333 336 338 339 339 340 340
324 325 325 328 326 320 321 322 322 319 318 320 317 317 317 316 316 316 316 315 315 316 314 313 313 315 313 313 312 310 310 310 310 310 310 310 311 311 311 311 311 311 312 312 312 310 311 311 312 315 319 323 326 328 330 330 331 332 332 332 332 332 334 336 337 338 338 338 337 336 336 335 337 337 335 335 335 335 334 334 335 335 333 332 331 331 331 331 330 330 332 335 336 337 338 339 339
323 323 327 329 323 320 320 321 322 319 318 319 317 317 317 315 316 315 315 314 315 318 315 312 313 313 312 311 311 310 309 309 309 309 309 309 309 309 309 309 309 309 310 310 310 308 309 310 310 311 312 315 319 323 326 329 330 330 332 333 333 333 333 335 336 337 337 338 337 336 335 334 335 336 335 334 335 335 334 333 334 335 334 332 332 331 330 329 328 329 332 335 335 336 338 338 338
322 325 328 327 322 319 320 321 321 319 319 318 317 316 315 315 315 315 314 314 315 317 313 311 312 311 310 310 309 309 308 308 308 308 308 308 308 308 308 308 308 308 308 308 308 307 308 309 310 310 310 311 313 317 321 325 328 329 330 331 333 334 334 333 333 335 336 337 337 336 335 334 334 335 335 334 334 334 333 333 333 334 334 333 331 330 329 328 328 330 332 336 335 336 338 337 337
324 329 327 324 323 320 320 320 319 319 318 317 316 316 315 314 314 314 314 314 314 314 311 311 311 309 309 309 308 308 308 307 306 306 306 306 307 306 306 306 306 306 305 306 306 306 307 308 308 309 310 310 310 313 317 321 324 327 328 329 330 332 333 333 333 333 334 335 336 336 335 333 333 334 335 334 334 334 333 333 333 334 334 332 331 330 328 328 329 331 334 336 337 338 338 337 336
324 327 323 321 322 319 318 318 317 317 316 316 316 315 315 314 314 314 314 314 314 312 311 311 310 308 308 308 307 306 306 306 305 305 305 305 305 304 304 304 305 305 305 305 305 305 305 306 306 308 310 311 310 310 313 316 320 323 324 326 328 329 331 332 333 333 332 332 334 334 334 334 333 334 334 334 334 334 334 333 333 334 333 332 331 330 329 329 329 331 335 337 337 337 338 337 337
323 324 322 321 319 317 316 316 317 316 316 316 315 315 315 314 314 314 314 314 312 311 310 310 309 307 307 306 306 305 305 305 304 304 304 304 304 303 303 303 304 305 305 305 305 304 304 304 306 307 308 310 311 311 312 313 316 319 321 323 325 327 328 329 331 332 332 332 333 333 334 334 334 334 334 335 334 334 333 333 333 334 332 331 331 331 330 329 329 332 335 336 336 336 336 337 338
321 320 321 319 317 318 317 316 316 315 315 315 315 315 314 314 314 314 314 314 312 310 309 308 307 306 306 306 305 304 304 304 304 304 303 303 304 303 303 303 303 303 304 305 305 304 305 304 305 306 306 309 309 311 314 313 313 315 317 320 322 324 326 327 329 330 332 332 333 333 334 334 334 334 334 334 334 333 332 332 332 332 331 331 331 331 329 329 330 333 335 336 336 335 336 336 336
319 319 319 317 316 318 316 315 316 315 314 314 314 314 313 313 314 313 313 313 311 310 308 307 306 306 305 304 304 304 303 303 303 303 303 303 303 303 303 302 302 302 302 303 304 304 304 304 305 304 305 308 308 310 313 312 313 313 314 316 319 321 323 325 326 327 328 330 332 333 334 334 334 334 333 333 333 332 331 331 332 331 331 331 331 330 328 329 331 333 335 336 335 335 335 335 334
318 318 317 316 315 316 315 315 316 315 314 314 313 313 314 314 313 313 312 311 310 308 307 306 306 305 304 304 303 304 304 303 303 303 303 302 303 302 302 302 301 302 302 302 303 303 303 303 305 303 303 305 304 306 308 309 312 313 313 314 315 318 320 323 325 326 326 327 329 331 332 333 333 333 333 333 332 332 331 331 331 331 332 331 329 328 327 329 332 333 334 334 333 333 333 333 333
318 318 317 315 315 315 315 314 315 314 313 313 312 313 314 314 313 312 311 310 308 307 306 305 305 304 303 303 303 303 303 302 302 302 302 302 302 302 301 301 300 300 300 301 302 302 302 302 304 303 303 303 302 303 305 306 308 309 312 313 314 315 317 319 322 324 325 326 327 328 330 331 332 333 332 333 332 331 331 331 331 331 332 331 329 327 327 330 331 331 332 333 332 332 332 331 330
318 318 316 315 314 314 314 314 314 313 313 312 312 313 314 314 313 312 311 309 307 306 305 305 304 303 303 302 302 302 302 301 301 301 301 301 301 300 301 300 300 299 299 300 300 301 302 302 302 302 302 303 302 302 303 304 304 304 306 309 312 314 315 317 319 321 323 324 325 326 327 329 331 332 332 332 331 331 331 331 330 331 332 330 329 327 327 330 331 330 330 331 331 330 329 328 328
318 316 315 315 315 314 314 313 313 313 311 311 312 313 313 314 313 312 310 308 306 305 305 305 304 303 303 302 302 302 301 301 300 300 300 300 300 300 300 300 300 299 299 299 299 299 301 301 301 301 301 302 302 301 302 302 302 302 304 305 307 311 314 316 317 319 320 322 324 324 325 327 328 330 331 331 330 330 331 331 330 330 331 331 329 328 327 330 331 329 329 330 329 328 327 325 326
316 315 314 314 314 314 314 313 313 312 311 311 312 313 313 314 314 311 309 307 306 306 305 304 304 303 302 302 302 301 300 300 299 299 300 299 299 299 299 299 299 299 299 298 298 298 299 300 301 300 300 301 301 300 300 301 301 301 303 304 304 306 311 315 316 317 318 320 322 323 323 325 325 327 329 330 329 330 330 329 328 329 330 331 330 328 328 330 330 328 329 329 328 326 326 325 324
315 314 313 313 314 314 313 313 313 313 311 312 312 312 313 313 313 311 308 307 306 305 305 304 303 302 302 302 302 301 300 300 299 299 298 299 299 298 299 299 298 299 298 298 298 298 298 299 299 299 299 300 300 300 299 300 299 300 302 303 304 303 304 309 314 315 317 318 320 321 322 323 325 326 327 328 329 329 328 327 328 329 330 331 330 328 328 329 329 328 328 328 326 326 325 325 325
313 313 313 314 314 314 313 313 314 312 312 313 312 312 313 312 312 310 308 307 306 305 304 304 303 302 302 301 301 300 299 299 299 298 298 298 298 298 298 298 298 298 298 298 298 297 297 298 298 298 298 299 299 299 299 299 299 299 301 302 303 302 302 306 312 314 316 317 318 319 320 322 324 325 325 327 328 328 327 326 327 329 329 330 330 329 328 328 327 327 327 326 325 325 326 326 326
313 313 313 315 314 314 313 313 314 312 313 315 312 311 313 313 312 309 308 306 305 305 303 303 303 302 302 301 301 301 299 298 298 298 298 298 297 297 298 297 297 298 298 297 297 297 297 297 298 297 297 298 298 298 299 299 299 299 299 301 302 302 304 307 309 311 314 316 317 318 319 320 322 323 324 325 326 326 326 326 326 328 327 328 330 329 327 327 326 326 326 325 324 324 325 325 327
313 314 315 317 317 315 313 313 314 312 314 316 312 310 311 312 312 309 307 306 304 304 303 302 303 302 302 301 301 301 300 298 298 298 298 298 297 297 297 297 297 297 297 297 297 297 296 296 297 297 297 297 297 297 298 298 298 298 299 299 300 301 304 306 305 306 310 313 316 318 318 320 320 321 322 324 325 325 326 325 326 326 324 326 329 329 327 326 325 325 325 325 324 323 323 323 325
314 316 318 319 317 315 313 314 313 312 313 313 311 311 310 310 311 309 307 306 304 303 302 302 302 301 301 300 300 300 299 298 298 298 297 297 297 297 297 297 297 297 296 296 296 296 296 296 296 297 296 296 296 297 297 297 297 298 298 299 298 300 302 302 302 304 306 308 309 312 315 317 318 318 319 322 324 323 324 325 325 325 325 326 328 327 327 326 324 324 323 323 323 323 323 323 324
316 317 318 318 316 315 314 313 313 313 312 312 311 310 310 310 309 308 306 305 304 302 302 302 301 301 300 300 299 299 299 298 298 297 297 297 297 297 296 296 296 296 296 296 296 296 295 296 296 296 296 295 296 296 296 296 297 297 298 298 298 299 299 299 300 302 303 302 302 305 311 314 316 317 318 320 323 323 323 324 325 325 325 326 327 326 326 326 325 323 322 323 323 323 323 323 323
319 318 317 316 314 312 312 312 313 313 312 312 311 310 311 310 308 307 306 305 304 302 302 301 301 300 300 299 299 299 299 299 298 297 297 297 296 296 295 296 296 296 295 295 295 295 295 295 295 295 295 295 295 296 296 296 296 297 297 298 298 298 298 298 299 300 301 300 301 303 306 309 312 316 317 317 320 321 323 324 324 324 324 325 327 327 326 326 325 324 323 322 322 322 322 323 322
319 318 316 315 313 310 310 310 312 313 312 311 311 310 311 310 307 306 305 304 303 302 302 301 300 300 299 299 299 299 299 298 298 297 297 296 295 295 295 295 295 295 295 294 294 294 295 295 295 295 295 295 295 295 295 295 296 296 296 297 298 298 298 298 298 299 300 300 301 301 303 305 305 309 314 315 315 316 321 322 322 323 323 324 326 326 325 326 326 324 324 323 321 321 321 322 321
314 315 314 314 313 311 311 311 311 311 311 311 310 310 310 309 308 306 305 304 303 302 301 301 300 299 299 299 299 298 298 298 298 297 296 295 295 295 295 294 294 294 294 294 294 294 294 294 294 294 295 295 295 295 295 295 295 296 296 296 297 298 298 298 298 298 300 301 300 299 302 302 299 300 306 312 312 313 318 322 321 323 323 324 325 326 325 325 325 324 323 323 321 319 320 321 321
311 313 313 313 314 312 312 312 311 310 311 311 310 310 309 309 308 305 304 303 302 301 301 300 299 299 299 299 299 298 298 298 297 297 296 294 294 294 294 294 294 294 294 294 294 294 294 294 294 294 294 294 294 295 295 295 295 295 295 296 296 297 298 298 298 298 299 300 299 299 300 299 297 297 301 307 311 311 315 319 321 322 323 324 325 325 325 325 325 324 323 322 321 319 319 320 320
310 313 313 314 315 314 312 313 311 310 311 310 309 309 308 308 308 306 304 303 302 301 300 299 299 299 299 299 298 298 298 298 297 296 295 294 294 294 294 294 294 294 294 294 294 294 294 294 294 294 294 294 294 294 294 294 295 295 295 295 295 296 297 298 299 298 298 299 299 299 299 297 297 297 297 301 307 310 311 313 318 321 322 324 324 324 324 324 324 323 322 321 320 319 319 319 319
312 314 315 315 316 315 313 312 311 310 310 309 309 308 307 308 308 305 304 303 301 301 300 300 299 299 299 298 298 297 297 298 297 296 294 294 294 293 293 293 293 294 293 293 294 294 294 293 293 294 294 294 294 294 294 294 294 294 294 294 295 295 296 297 298 298 298 298 298 299 298 297 297 296 296 298 303 308 309 309 313 319 322 322 323 324 323 323 323 323 322 321 320 319 319 319 319
315 315 315 316 317 316 314 313 311 310 309 309 309 309 308 308 308 305 304 302 301 301 301 301 300 299 299 298 298 297 297 297 297 296 294 293 293 293 293 293 293 293 293 293 293 293 294 294 293 294 294 294 293 293 293 293 293 293 293 294 294 295 295 296 297 297 298 298 298 298 298 299 298 296 295 296 300 305 307 307 308 313 320 322 321 322 323 322 323 322 321 321 321 319 319 320 319
316 317 317 316 315 313 313 312 310 308 309 309 308 308 308 308 307 305 303 301 300 300 299 300 300 299 299 299 298 298 297 296 296 296 295 293 293 293 293 293 293 293 293 293 293 293 293 293 293 293 293 293 293 293 293 293 293 293 293 293 294 294 294 295 295 296 297 297 298 298 299 299 298 296 295 295 298 302 305 306 306 308 314 320 321 321 322 321 321 322 321 320 320 319 319 319 319
313 317 317 314 312 312 313 313 311 310 310 309 307 308 310 310 308 305 302 301 299 299 298 298 298 299 298 298 298 297 297 296 296 296 294 293 292 292 292 292 293 293 293 293 293 293 293 293 293 293 293 292 292 292 292 292 292 292 292 293 293 294 294 294 295 295 295 296 297 298 299 299 299 297 295 295 296 299 303 305 305 305 307 314 320 321 321 321 321 321 321 320 320 320 320 319 319
312 315 314 310 309 311 313 312 312 311 311 309 308 308 308 310 309 306 303 301 299 298 298 298 298 298 297 297 297 296 296 296 296 296 294 292 292 292 292 292 292 293 293 293 293 293 293 293 293 292 292 292 292 292 292 291 291 291 291 292 292 293 293 294 294 294 295 295 296 298 299 299 299 297 295 295 295 297 301 304 304 304 303 307 316 321 321 320 320 320 320 320 320 320 319 319 318
314 312 310 309 310 311 312 311 311 311 310 309 309 309 307 307 308 307 304 303 300 298 298 298 298 298 297 297 296 295 295 295 296 295 294 292 292 292 292 292 292 292 293 293 293 292 292 292 292 292 291 291 291 291 291 291 290 289 290 290 291 292 292 293 294 294 294 295 296 297 298 299 299 298 295 295 295 296 299 302 303 303 302 303 307 316 320 320 320 321 320 320 320 319 319 319 318
312 308 307 308 308 310 310 310 311 310 310 309 309 310 308 307 308 307 305 304 300 298 298 298 297 297 296 296 295 295 295 295 295 294 293 292 292 292 292 292 292 292 293 293 292 292 292 292 292 291 291 290 290 290 290 289 288 288 288 289 290 291 292 292 292 293 294 294 295 296 298 299 299 298 296 294 295 295 297 300 302 302 302 302 302 307 316 320 320 320 320 320 320 320 319 319 318
310 308 310 311 310 311 310 311 312 310 309 307 307 310 309 308 309 308 306 304 300 298 298 297 297 297 296 295 295 294 294 295 295 293 292 292 292 292 292 292 292 292 292 292 292 292 292 292 291 291 290 289 289 289 288 287 286 286 287 288 288 289 290 291 292 293 294 294 295 295 297 299 299 298 296 295 295 295 295 297 300 301 301 301 302 302 308 317 321 320 320 320 319 320 319 318 318
310 310 311 311 311 311 310 311 311 308 308 307 307 309 308 308 310 307 306 304 301 299 297 296 296 296 296 295 294 294 294 294 294 293 292 292 292 292 292 292 292 292 292 292 292 292 291 291 291 290 289 289 288 287 286 285 285 285 285 285 285 286 287 289 290 291 293 294 294 295 296 298 299 298 297 295 294 295 295 295 297 300 300 300 301 301 303 311 320 320 319 320 319 319 319 318 318
310 310 310 310 311 309 308 311 310 307 309 307 305 307 307 308 308 304 302 301 300 299 297 296 296 295 295 295 294 294 294 294 294 294 293 292 292 292 292 292 292 292 291 291 291 291 290 290 290 289 288 287 287 286 285 284 285 284 284 284 284 285 286 287 287 288 289 291 293 294 296 298 299 299 297 295 294 295 295 294 295 297 299 299 300 301 300 304 314 320 319 319 319 319 318 318 317
309 309 308 310 311 310 310 313 313 311 309 304 302 304 304 304 305 302 299 297 297 297 296 296 295 295 295 295 294 294 294 294 294 294 293 292 292 292 292 292 291 291 291 291 291 290 289 289 288 288 287 286 285 285 284 284 284 284 284 283 283 284 285 285 286 287 287 289 290 292 295 298 298 298 298 296 294 295 295 294 294 295 297 298 299 300 300 301 308 318 319 318 319 319 318 318 317
309 309 308 309 311 310 310 311 312 312 309 304 302 303 303 303 303 302 299 296 296 296 296 296 295 295 295 294 294 294 294 294 294 293 293 293 292 291 291 291 291 291 291 291 290 289 289 288 287 287 286 285 284 284 283 283 283 283 283 283 283 283 283 284 284 286 287 288 289 291 294 298 298 298 298 296 295 295 295 294 294 294 295 297 298 299 300 300 303 313 319 318 318 318 318 317 317
307 306 306 308 309 308 309 308 309 311 308 305 303 303 304 304 302 300 297 296 296 296 296 297 296 295 295 294 294 294 294 293 293 293 293 292 291 291 291 291 291 291 291 290 289 289 288 287 286 286 285 284 283 283 282 282 281 281 282 282 282 282 282 282 282 283 285 286 288 290 293 296 298 298 298 297 296 295 295 295 294 294 294 295 296 298 299 300 301 307 317 319 317 318 317 317 317
306 305 307 308 307 307 308 307 306 307 305 302 302 304 304 302 299 297 297 296 296 296 296 296 295 295 295 294 294 294 293 293 293 293 292 292 291 291 291 290 291 291 290 289 289 288 287 286 285 285 284 283 282 282 281 280 280 280 280 281 281 281 281 281 281 281 282 283 285 288 289 291 295 298 298 298 297 295 295 295 294 294 294 294 295 296 298 300 300 304 314 318 317 318 317 316 317
305 305 307 306 304 304 306 306 304 304 303 301 303 303 302 302 300 297 296 296 295 296 296 294 295 295 294 294 294 293 293 293 293 292 292 291 291 290 290 290 290 290 289 289 288 287 286 285 284 284 283 282 282 281 280 280 279 279 279 279 280 280 280 280 279 280 281 282 283 285 287 289 292 295 297 298 297 296 296 295 295 294 294 294 294 295 297 299 300 302 311 317 317 317 317 316 316
303 304 305 303 302 302 303 304 302 301 301 302 304 303 301 302 302 297 296 296 295 296 295 294 294 294 294 294 294 293 293 293 292 292 292 291 290 290 290 290 290 289 289 288 287 287 285 284 283 283 282 282 281 280 280 279 278 278 278 278 278 278 278 278 279 279 280 281 283 285 287 289 289 290 294 297 297 297 296 296 295 294 294 293 294 294 296 298 300 301 307 315 317 316 316 316 315
303 303 302 302 303 302 302 303 302 301 301 303 304 303 301 302 302 299 296 296 296 296 295 294 294 294 294 294 293 293 293 292 292 292 292 290 290 290 290 290 289 289 288 287 287 286 285 283 283 282 282 281 280 280 279 278 277 277 277 277 277 277 277 278 278 278 279 280 282 284 285 287 288 288 291 295 297 297 296 296 295 294 294 294 293 294 295 297 300 301 305 313 317 316 316 316 315
300 300 299 300 300 301 302 302 301 302 301 302 303 302 302 302 302 301 298 296 296 295 294 294 294 294 294 293 293 293 293 292 292 292 291 290 290 290 290 289 289 288 287 286 286 285 284 283 282 282 281 280 280 279 278 278 277 276 276 276 276 276 276 277 277 278 278 279 280 282 283 285 286 288 289 291 295 297 297 296 296 295 294 293 293 294 294 296 298 300 304 312 316 315 315 315 315
299 298 298 299 298 300 301 300 300 301 300 300 300 300 301 301 299 299 297 295 296 295 294 294 294 293 293 293 293 293 292 292 291 291 291 290 289 289 289 289 288 287 286 286 285 284 283 283 282 282 281 280 279 279 278 278 277 276 276 275 275 275 276 276 276 277 278 278 279 280 281 283 284 286 286 287 290 294 296 297 296 295 294 293 293 293 294 295 297 299 302 309 315 315 314 315 314
301 298 298 299 298 300 301 299 300 300 298 298 298 298 300 300 298 297 296 296 296 295 294 294 294 293 293 293 293 292 292 291 291 290 290 289 289 289 289 288 288 287 286 285 284 283 283 283 282 282 281 280 279 279 278 277 277 276 276 275 275 275 275 275 276 276 277 278 278 279 280 281 282 283 284 284 285 288 293 296 296 295 293 293 293 293 294 294 296 299 301 306 313 315 314 314 313
Wind_Speed
9 9 10 7 7 8 5 3 1 1 2 1 4 3 2 2 1 3 6 6 3 3 5 4 5 4 3 2 3 5 3 2 2 3 1 0 5 12 17 20 20 17 16 13 7 8 13 13 9 11 12 12 12 12 12 13 14 15 15 16 16 16 17 17 16 15 15 14 13 12 13 13 13 13 14 14 15 16 16 17 17 17 16 16 15 17 18 17 17 16 15 15 14 14 13 11 9
8 8 8 6 7 6 2 1 1 2 2 3 5 3 0 0 3 5 7 6 4 4 4 4 4 4 3 4 4 4 3 1 6 3 3 11 11 17 27 25 25 20 14 12 10 8 10 13 10 10 13 12 11 12 12 12 13 14 15 16 16 17 17 17 16 15 15 14 14 14 14 13 14 15 14 15 16 17 17 18 18 19 18 17 16 16 16 16 16 16 16 15 14 15 14 12 11
7 6 7 7 6 3 2 1 1 3 1 4 4 3 2 3 6 6 7 6 5 4 3 3 2 2 4 4 2 2 2 5 10 4 4 18 12 17 29 27 26 20 14 13 13 9 7 11 11 9 11 12 12 12 13 13 13 14 15 16 17 17 17 16 15 15 15 15 14 15 15 15 16 16 16 17 18 17 17 18 18 19 18 17 17 16 16 16 15 15 16 15 14 15 15 14 12
7 5 6 7 2 2 2 1 2 3 4 3 3 4 5 5 7 6 6 6 5 3 2 4 1 1 2 4 4 2 3 4 10 9 4 14 14 20 30 28 25 19 16 15 14 11 6 9 11 11 10 11 13 13 13 14 14 15 16 16 17 18 18 17 16 16 16 15 15 15 16 16 17 17 17 18 18 18 17 18 18 18 18 16 16 16 16 15 15 15 15 15 14 16 16 15 14
7 5 5 5 2 0 1 2 2 3 4 3 3 4 6 6 7 6 3 7 5 4 3 4 2 1 1 1 2 1 3 4 10 17 10 15 24 26 28 26 23 18 18 17 13 10 8 8 10 12 12 12 13 15 15 15 16 16 16 17 18 18 19 18 17 16 16 15 16 16 17 17 17 17 17 18 18 18 18 18 18 18 18 17 17 16 15 15 15 15 15 15 14 16 17 17 15
8 6 5 3 2 2 1 2 2 5 3 4 3 4 7 7 7 6 3 6 4 5 3 4 4 5 1 1 1 3 6 5 8 17 17 20 28 27 26 24 21 19 18 17 14 10 9 11 11 13 13 13 14 16 17 17 17 17 17 18 19 19 19 18 18 17 17 16 16 16 17 18 18 18 18 18 18 18 18 19 19 19 18 18 18 17 15 15 15 15 15 15 15 17 18 18 17
8 5 3 2 2 1 2 2 4 4 2 4 4 5 7 6 6 6 5 4 2 4 2 3 5 4 1 2 2 9 19 19 12 18 22 22 26 25 25 23 20 20 20 17 14 11 11 14 15 15 15 15 16 17 19 19 19 19 18 19 19 20 20 19 19 20 19 18 18 17 18 19 18 18 19 19 18 18 19 20 20 19 19 18 18 18 17 17 17 16 16 16 15 17 19 19 18
3 3 0 1 2 1 3 1 5 3 2 3 5 5 5 6 5 4 6 4 2 3 2 5 5 2 3 6 2 12 27 27 20 24 24 23 24 24 24 25 22 22 23 19 14 11 13 16 18 18 17 17 18 19 19 20 21 20 19 20 20 20 21 21 20 21 20 20 20 18 19 19 18 19 19 19 19 19 20 20 20 21 21 20 20 20 19 19 18 18 17 17 17 17 20 20 20
3 2 1 1 2 3 3 4 4 2 4 3 5 5 3 5 5 4 3 3 3 3 4 7 4 3 4 6 5 11 21 23 23 27 27 24 24 25 25 26 25 25 25 24 21 15 15 18 19 20 19 19 19 20 20 20 20 20 21 21 22 21 20 21 21 21 22 22 22 20 20 20 19 20 20 20 20 20 20 20 21 21 22 23 23 22 20 20 19 19 19 18 18 18 21 21 21
3 3 0 1 2 4 2 4 4 2 5 4 6 6 4 5 3 3 3 3 4 2 7 6 2 4 6 4 7 9 16 22 28 32 30 25 23 26 26 24 24 25 27 29 28 23 20 19 20 21 22 21 20 20 20 21 20 20 21 21 22 22 22 22 22 22 21 21 22 21 20 20 20 20 20 21 21 20 20 20 20 21 22 23 24 23 21 20 20 19 19 20 20 21 23 22 21
1 2 0 1 3 2 1 3 4 3 5 5 6 7 4 3 0 3 5 5 5 6 9 7 3 4 5 5 6 9 23 31 33 32 28 25 23 24 25 22 22 22 25 29 28 27 25 23 22 22 23 24 24 22 21 20 21 20 21 22 22 23 24 25 25 23 22 22 21 21 21 22 22 20 20 21 21 21 21 20 20 21 22 23 23 23 22 20 20 19 20 21 22 23 24 23 22
2 2 1 2 4 2 2 2 4 4 5 5 5 6 2 4 3 5 6 5 7 9 9 7 3 4 4 5 3 12 31 33 30 29 27 26 24 24 24 23 24 22 23 26 26 27 26 24 24 23 23 24 25 25 24 21 21 22 22 23 23 23 24 25 25 25 24 24 23 23 23 23 22 20 21 21 20 22 22 21 20 21 22 23 23 23 22 21 20 19 20 21 22 23 24 24 23
1 4 3 3 4 2 2 2 2 4 3 4 5 4 1 4 6 5 5 5 8 7 7 6 4 2 4 4 4 12 23 28 30 29 27 26 25 25 25 25 28 27 26 28 28 29 27 26 24 23 23 24 24 25 25 24 23 23 24 25 25 24 24 25 25 25 25 25 25 25 25 25 23 20 22 21 20 21 22 21 21 20 21 22 23 23 22 21 21 21 21 21 23 24 25 25 24
1 3 2 3 4 1 2 2 3 3 3 5 4 1 1 4 5 5 4 5 7 5 5 7 6 2 5 6 7 9 15 27 31 28 26 24 24 24 26 26 28 29 30 30 32 32 31 29 27 25 24 23 23 23 25 25 25 24 24 26 28 27 27 27 26 27 27 26 26 26 26 27 25 23 24 23 21 22 22 22 21 21 21 22 23 23 23 22 23 23 23 22 24 24 25 25 26
2 3 0 3 4 1 2 1 2 3 4 5 2 2 3 5 5 4 4 4 4 3 3 8 10 3 6 9 6 8 17 27 28 26 26 23 24 24 26 27 27 29 30 30 31 33 32 32 32 29 27 26 24 23 23 24 25 25 25 25 27 29 29 30 30 30 30 29 28 27 27 27 28 27 26 24 23 23 23 23 22 22 22 23 23 23 24 24 24 24 24 24 25 24 25 26 26
1 2 1 3 3 1 2 2 3 3 3 4 3 3 6 6 4 3 3 2 2 3 4 10 13 9 9 10 7 13 20 24 24 26 27 25 24 24 26 27 27 29 29 29 29 33 33 32 34 32 31 30 27 26 24 23 23 24 26 26 25 26 28 30 32 33 33 32 31 30 29 28 28 28 27 26 25 24 25 25 24 24 24 24 24 24 24 24 24 24 24 25 26 25 25 27 28
1 1 1 4 2 3 3 3 4 3 2 2 2 6 6 4 4 2 0 0 3 7 9 12 15 14 11 11 13 19 21 22 24 26 27 25 23 23 25 26 27 28 29 30 29 32 33 32 34 33 33 33 31 28 26 24 23 23 24 26 27 26 27 29 31 34 35 35 34 32 30 29 29 29 29 28 27 26 26 26 25 26 26 25 24 24 23 23 23 23 24 24 26 27 27 29 30
1 1 1 4 2 3 3 4 4 3 4 6 6 7 6 4 4 3 2 1 6 9 9 12 16 15 14 16 19 20 20 22 24 25 25 23 22 21 22 24 26 27 29 30 30 32 34 33 34 33 32 34 34 31 27 25 24 23 23 24 26 27 27 28 29 31 33 35 36 33 31 30 31 31 30 30 29 28 28 27 27 27 27 25 24 24 23 22 22 23 23 23 25 28 29 30 32
1 1 2 2 3 2 4 5 5 5 6 6 7 6 5 5 3 4 3 6 8 8 7 9 13 12 14 17 19 19 20 21 22 23 23 23 22 20 20 22 23 25 28 29 30 32 34 33 33 34 32 32 34 34 30 27 25 25 25 24 24 25 26 26 27 28 29 32 34 34 32 31 32 32 31 30 29 28 28 28 28 28 27 26 25 24 23 22 22 23 23 23 25 28 29 31 34
0 1 1 1 3 1 3 5 5 6 7 6 5 5 3 6 3 3 3 8 8 7 6 8 9 9 10 11 14 17 18 20 21 22 22 22 22 21 21 22 23 24 27 27 28 30 34 34 33 33 33 32 33 34 32 30 28 27 26 25 24 25 26 26 27 28 28 29 31 32 32 32 32 32 32 31 30 29 28 28 27 27 27 26 25 24 23 22 22 21 21 24 26 27 29 34 37
1 0 1 1 2 2 1 4 5 6 6 4 5 4 3 3 3 3 4 7 6 7 7 9 9 9 9 8 11 15 17 18 19 19 20 20 21 22 22 23 24 25 26 26 27 29 32 34 33 33 32 32 33 34 31 30 31 29 28 27 26 26 26 26 28 29 28 28 30 31 31 31 31 31 32 32 31 30 28 28 27 28 28 26 25 24 23 21 21 19 20 25 27 28 32 35 38
1 0 2 4 3 2 1 4 4 6 4 4 5 3 3 3 3 6 7 6 4 6 9 10 9 8 9 8 10 13 15 15 17 18 18 20 21 22 23 23 24 25 26 26 27 28 30 32 32 32 32 30 32 33 30 30 30 29 30 29 28 28 28 28 29 30 30 29 30 31 30 30 31 31 31 31 31 30 28 28 27 28 28 27 26 25 23 21 22 20 22 26 27 29 33 36 38
1 1 4 5 4 1 1 4 4 6 3 4 3 3 2 1 6 6 7 8 7 9 10 10 9 10 12 11 11 11 11 12 15 18 19 20 21 22 22 23 24 24 25 26 26 28 30 32 31 32 32 30 32 32 30 31 29 28 29 29 29 29 29 29 29 30 31 31 31 31 30 30 31 31 31 31 31 30 30 29 28 27 27 27 27 25 23 22 22 23 25 28 29 30 34 37 38
2 1 4 4 3 3 2 3 3 3 2 3 3 2 4 4 7 6 9 10 10 11 10 10 11 12 13 11 10 10 11 13 16 18 19 19 20 21 21 22 24 25 26 27 26 27 28 30 28 29 31 30 33 33 31 31 30 30 29 29 29 29 30 30 30 30 31 32 33 34 31 31 31 32 32 32 33 32 31 32 30 28 28 29 28 25 23 24 24 24 27 30 31 32 35 36 37
4 1 2 3 2 2 3 3 1 0 1 4 5 3 3 4 7 7 10 11 10 10 9 10 10 11 11 9 10 9 10 13 16 17 18 18 20 21 21 22 24 24 25 25 24 25 26 27 26 27 28 28 31 32 31 31 30 31 30 30 30 29 30 30 31 31 32 33 34 35 35 32 33 34 33 31 33 33 32 32 31 30 29 29 28 26 24 26 27 26 28 32 32 34 34 34 36
2 1 1 2 3 4 3 4 2 2 1 3 5 1 4 7 8 7 10 11 10 10 9 9 8 9 9 9 9 9 9 11 14 15 16 18 20 21 21 21 21 22 23 24 25 26 26 28 27 28 29 28 29 30 30 30 30 32 31 32 32 30 30 30 31 32 32 34 34 35 36 35 34 34 34 32 31 31 32 33 32 30 29 29 29 27 26 28 30 29 31 33 31 30 32 31 31
1 1 2 3 4 4 4 5 4 3 1 3 4 2 4 8 5 5 9 11 10 10 9 8 8 9 9 9 8 9 9 10 13 15 16 17 19 20 20 21 22 23 24 25 27 28 29 30 29 31 32 31 32 33 32 31 31 32 31 31 32 32 32 31 31 32 33 34 34 36 37 38 37 35 34 33 32 30 32 34 34 32 30 29 30 29 27 30 33 33 33 35 30 27 31 32 31
2 2 3 5 6 4 5 6 4 4 2 4 4 4 3 6 2 6 12 10 10 10 9 8 7 8 8 9 7 8 9 10 13 15 16 15 17 20 20 21 23 23 23 25 26 28 29 30 30 32 33 33 34 34 34 33 34 33 32 32 32 33 34 33 32 33 34 34 34 35 37 38 38 38 37 36 35 34 32 33 34 36 33 29 31 31 29 32 35 35 33 34 31 29 32 34 35
3 2 2 4 7 5 7 7 4 5 1 3 4 4 3 7 5 11 14 10 10 10 9 8 7 7 7 7 6 6 7 10 12 14 16 16 17 20 20 20 23 23 23 24 25 28 29 30 30 31 32 32 33 33 33 33 34 34 33 32 32 33 35 34 33 33 34 35 35 35 36 37 37 37 38 39 39 37 35 33 32 36 35 32 33 33 33 35 37 37 34 34 33 32 32 32 34
3 2 2 3 5 5 8 7 5 6 2 1 3 3 3 7 9 13 13 11 11 9 8 7 6 7 6 6 5 5 7 10 11 14 18 17 17 20 20 20 22 23 24 26 27 28 30 31 30 31 32 32 34 33 32 32 32 33 32 32 32 33 34 33 34 34 34 36 37 36 36 36 37 37 39 42 42 39 37 34 33 36 36 34 36 37 37 39 40 39 36 35 35 34 33 32 33
2 1 2 3 3 4 8 6 6 6 2 2 2 2 4 3 11 13 11 10 10 9 7 7 6 6 6 5 5 4 6 10 13 14 17 17 16 19 19 20 22 23 26 28 28 28 30 31 29 30 32 33 36 34 33 34 33 32 31 31 33 33 31 32 35 35 34 35 36 36 36 36 37 38 39 42 43 40 38 36 35 37 35 34 38 40 40 40 40 40 39 36 35 35 35 32 31
2 0 3 3 1 2 6 5 6 5 2 5 3 2 3 3 10 11 9 9 9 10 7 7 6 6 6 4 5 4 5 10 13 13 15 17 16 19 20 20 23 24 26 27 27 28 30 30 28 29 30 32 34 32 33 36 35 34 32 31 32 31 31 32 34 34 34 34 36 38 38 38 38 38 39 40 42 40 37 37 38 39 36 33 37 41 40 40 39 38 39 39 37 35 34 33 31
3 2 3 2 2 0 4 2 4 2 1 4 3 2 3 2 8 8 9 9 9 10 8 8 7 6 6 4 4 4 5 7 10 11 15 17 15 18 20 20 21 22 24 25 25 28 30 29 28 29 31 32 31 30 32 34 35 35 34 33 32 30 31 32 32 33 35 36 37 38 38 39 39 39 38 37 39 39 37 37 38 39 38 34 35 41 41 41 40 38 38 39 41 39 35 34 32
1 0 3 3 3 3 1 2 4 4 2 3 2 3 5 4 9 7 8 9 9 10 8 8 7 5 5 4 4 5 5 5 6 8 12 14 14 18 19 19 20 21 24 24 25 28 29 28 28 30 32 32 32 32 33 33 34 34 33 33 31 31 31 31 32 32 35 37 36 36 37 39 39 38 37 35 35 37 39 40 39 37 37 33 33 41 42 41 41 40 39 39 41 41 37 35 35
3 3 3 4 4 4 5 2 3 4 4 3 3 5 6 5 10 7 8 8 8 9 7 7 6 5 5 4 5 5 4 3 4 6 9 12 16 19 20 19 20 22 24 25 28 30 29 29 30 31 31 31 32 35 35 34 34 34 34 32 30 31 30 31 33 33 33 34 34 35 36 38 38 38 38 36 33 35 40 42 41 37 36 34 33 38 40 40 40 40 39 40 40 41 41 38 35
5 5 4 5 5 5 8 4 3 3 3 4 5 5 6 5 8 8 7 8 8 8 7 6 5 5 5 4 5 4 2 1 3 5 9 13 17 19 20 19 20 22 24 26 28 29 29 31 32 32 31 31 33 34 34 35 35 33 33 33 32 31 30 31 33 33 32 31 34 36 35 36 39 39 38 36 33 34 38 40 40 36 35 38 37 36 39 40 41 41 40 41 40 37 39 37 32
4 4 4 6 6 6 8 4 3 2 1 4 5 6 9 7 6 10 8 8 8 8 8 6 6 5 4 5 5 2 2 1 3 5 10 15 17 19 22 22 22 23 23 26 28 27 28 31 32 33 33 34 33 33 34 35 35 34 33 32 33 34 33 33 33 33 31 30 34 36 34 36 39 39 37 36 35 32 33 37 37 35 35 39 42 39 40 42 42 43 41 41 42 38 34 34 35
4 5 5 6 6 6 6 3 4 4 0 3 6 8 11 10 5 10 9 8 8 8 8 7 6 6 4 5 4 2 2 1 3 4 9 16 18 21 24 23 23 23 24 27 27 27 29 31 32 34 36 35 33 33 35 36 37 36 35 35 36 37 37 35 33 34 33 32 34 33 33 36 37 38 38 36 35 33 31 34 34 33 36 37 40 39 39 42 42 42 42 39 40 42 38 38 40
5 5 5 6 4 3 5 2 3 2 1 3 7 9 10 8 5 11 9 8 7 6 7 7 6 6 4 4 4 2 3 3 4 4 8 16 19 21 23 23 23 23 24 26 26 28 29 29 32 35 36 34 34 37 37 38 40 41 41 41 40 39 39 36 36 36 35 33 32 31 32 35 36 37 38 36 35 34 32 33 35 31 35 37 36 38 39 40 42 42 43 41 37 36 35 38 44
5 5 5 6 2 1 3 1 2 4 5 6 9 8 7 5 5 9 7 6 6 6 7 6 5 5 5 4 4 4 3 4 5 4 7 14 17 19 21 24 25 25 25 26 27 29 28 29 33 34 35 35 37 39 40 40 42 44 44 45 44 41 39 38 36 36 35 32 31 32 32 33 34 36 37 37 35 34 33 33 36 34 32 38 36 37 42 42 42 42 43 43 39 31 27 34 44
4 4 4 4 2 1 3 3 5 8 7 6 6 7 6 5 8 7 5 7 6 7 7 6 5 5 5 4 5 5 4 4 5 5 6 11 13 17 22 24 26 26 26 27 29 30 30 32 33 34 36 38 40 41 42 42 42 43 43 43 41 36 35 34 32 32 32 32 33 33 32 32 33 34 36 36 35 34 33 33 34 36 33 34 38 37 40 44 42 41 42 43 42 37 30 31 39
4 1 1 1 2 3 4 6 6 6 5 2 2 4 5 6 10 7 6 7 7 7 7 7 6 5 5 4 6 5 4 3 5 5 6 10 13 18 22 24 26 25 26 28 30 31 31 33 34 36 39 41 43 43 41 41 41 43 42 39 36 33 31 31 29 30 33 34 34 33 31 31 32 33 34 34 35 34 33 34 34 35 38 32 39 42 37 40 42 41 43 45 43 44 39 31 33
3 2 2 3 2 4 5 5 4 2 5 3 2 2 5 2 7 9 8 8 8 8 7 7 6 5 5 5 5 3 3 3 5 5 6 9 14 18 21 24 26 26 29 30 28 29 32 35 36 37 41 43 45 44 42 40 40 41 41 39 38 35 33 33 33 33 35 36 35 35 33 30 30 31 32 32 33 35 33 33 34 34 39 38 31 42 40 37 42 44 45 47 44 43 41 35 33
2 3 1 1 2 5 5 5 4 4 6 7 4 5 6 6 6 10 13 10 9 9 7 6 6 5 5 5 5 2 3 4 5 5 6 9 14 17 20 23 26 30 32 29 29 34 37 37 36 38 43 46 48 46 42 37 37 42 45 43 41 38 35 37 38 36 36 37 36 36 33 29 28 28 30 31 30 32 33 32 33 32 37 43 35 29 41 41 41 46 47 47 46 43 41 38 36
2 2 1 2 4 7 7 6 6 5 6 7 6 5 5 7 3 7 12 11 9 10 9 8 6 5 6 5 4 1 4 4 4 5 7 11 16 20 23 24 27 30 31 29 34 39 37 36 37 41 46 48 48 45 39 38 44 47 45 42 40 39 37 38 40 39 37 36 36 36 33 29 27 25 27 30 28 28 31 31 31 30 33 39 41 34 34 44 42 43 48 48 46 46 45 42 40
1 3 4 5 6 7 6 6 5 5 6 8 7 6 5 6 2 7 8 8 9 9 8 8 7 6 6 4 2 2 3 3 5 6 9 13 17 22 26 26 28 29 28 31 36 37 35 37 40 43 47 47 46 42 40 46 50 45 39 39 42 42 41 40 39 39 37 35 35 36 34 31 26 24 25 28 28 26 27 28 27 28 30 33 38 41 35 37 45 44 47 49 47 47 47 43 43
3 4 5 5 6 7 5 6 4 3 5 7 6 7 8 5 2 7 6 5 9 9 7 7 7 6 6 4 1 2 3 4 6 6 9 14 18 22 25 26 27 28 28 32 35 35 36 40 41 43 46 45 43 41 44 48 45 40 39 42 44 43 42 40 37 37 36 33 33 34 34 30 27 24 23 25 27 26 25 26 26 26 27 29 34 39 40 33 42 49 49 50 50 50 49 46 44
2 1 4 4 4 4 3 2 2 2 5 2 4 1 4 6 2 5 4 3 8 9 7 8 6 5 5 2 1 3 5 5 6 7 8 12 15 20 22 24 26 26 29 33 34 35 39 42 42 41 44 44 43 44 46 46 41 39 40 41 41 40 38 37 37 37 37 34 33 34 33 30 26 24 21 22 26 25 24 24 25 26 26 27 31 36 39 40 37 46 51 52 52 50 50 48 43
2 2 2 3 4 3 2 1 1 4 5 2 6 7 2 7 5 3 7 5 7 7 7 8 6 5 4 2 3 4 4 5 6 7 7 8 11 16 20 23 25 26 29 31 32 35 40 43 42 40 42 44 45 45 46 46 44 41 39 39 39 39 37 36 37 36 36 35 35 37 35 29 25 23 22 21 25 25 22 23 23 24 25 26 28 33 37 42 40 37 45 47 52 52 50 50 46
4 2 2 3 1 3 4 2 2 4 4 4 4 5 3 5 5 4 9 8 8 8 7 7 6 6 4 2 2 3 4 5 6 5 6 7 10 16 20 23 25 26 28 30 33 38 40 40 41 41 42 44 45 46 45 45 44 42 41 38 37 38 37 37 38 37 36 35 34 37 37 30 26 24 23 23 26 26 23 21 21 21 23 25 27 31 35 40 42 35 40 41 44 50 51 51 49
4 2 2 3 2 3 4 1 2 4 5 5 0 3 3 3 2 3 9 8 8 8 7 6 6 6 5 2 2 3 5 5 5 5 7 9 13 17 20 23 25 26 28 31 35 39 38 38 40 42 42 43 46 47 45 43 42 42 42 39 36 36 36 36 37 37 38 38 35 34 36 33 27 26 26 25 27 28 25 22 21 20 21 24 25 29 34 37 42 39 42 47 43 45 48 50 51
2 2 3 1 2 3 4 1 2 2 6 6 2 2 4 3 1 5 9 7 7 7 6 6 5 4 4 3 3 4 4 4 5 6 7 10 15 19 21 23 24 24 27 32 37 38 36 37 40 43 43 42 44 44 42 42 41 41 41 39 37 36 35 36 36 37 40 40 37 34 35 37 34 29 27 25 26 29 28 24 22 20 20 22 24 27 32 35 40 42 41 52 49 47 48 48 49
0 2 1 3 1 2 1 3 1 2 5 6 2 3 4 2 2 4 8 7 7 7 6 6 4 3 4 3 2 3 4 5 6 6 7 9 15 20 22 23 22 23 29 34 37 37 35 37 40 43 43 42 43 43 40 39 39 40 40 37 36 36 36 37 37 37 38 38 38 35 34 34 36 35 30 27 27 29 29 26 23 22 21 22 23 24 29 33 36 41 34 43 49 48 49 48 47
3 2 2 1 1 2 2 2 2 1 6 6 3 6 6 2 2 3 7 7 7 7 5 5 4 3 2 1 2 4 5 5 7 7 7 10 16 20 22 24 23 24 30 34 36 35 35 36 38 39 40 40 42 43 41 40 38 39 39 36 35 36 36 38 37 36 36 37 37 35 32 33 35 39 36 30 30 30 29 27 24 22 22 22 24 24 27 31 33 38 35 34 44 44 45 46 46
3 1 1 2 0 1 2 1 1 2 7 6 4 7 6 5 4 5 8 8 6 5 5 3 1 2 2 2 4 5 5 6 7 7 7 10 15 20 21 22 23 26 31 32 33 34 33 35 39 39 39 38 40 41 41 40 38 36 37 37 37 37 36 37 37 36 36 36 36 34 33 34 35 36 37 33 30 31 29 26 24 23 23 22 24 25 27 30 31 33 37 34 43 43 41 43 45
3 2 2 1 2 2 2 2 2 3 6 7 8 8 3 4 5 7 8 6 6 4 3 2 1 2 3 3 3 4 5 6 7 7 8 10 15 20 21 21 23 26 30 31 31 32 33 37 40 39 38 39 40 40 39 39 37 36 36 38 38 37 36 37 37 37 36 35 34 34 33 34 34 34 36 35 31 31 30 28 25 24 23 22 23 25 26 29 31 31 35 33 41 45 41 42 44
3 2 3 3 2 1 1 1 2 3 5 5 8 10 4 1 0 5 7 5 6 5 3 2 1 2 2 2 2 4 5 6 7 7 9 11 16 21 22 22 25 28 30 30 29 32 35 37 37 37 37 39 40 40 40 38 37 36 36 36 37 38 38 38 38 37 36 35 35 34 33 33 33 34 35 36 35 32 31 30 28 25 23 21 22 24 25 27 30 31 34 31 35 43 39 39 41
5 5 6 6 5 3 2 5 2 2 5 4 6 12 7 2 1 4 6 4 6 6 3 3 2 3 2 1 2 4 5 6 8 9 9 11 15 20 22 24 27 30 30 30 31 35 35 34 37 40 39 36 37 40 41 40 38 36 37 37 36 37 38 38 38 37 36 36 36 34 33 32 33 33 33 35 37 35 33 32 30 25 22 22 21 23 24 25 29 30 31 33 30 41 41 38 38
Wind_Direction
346 343 331 321 310 298 273 232 286 263 219 55 65 83 56 81 68 360 33 29 54 57 23 353 342 355 332 313 308 317 304 295 6 11 36 79 63 42 16 7 360 353 350 347 327 293 307 311 282 242 232 236 230 224 226 225 225 223 225 228 230 231 231 231 230 231 229 233 237 238 242 244 245 246 248 251 253 254 256 256 257 257 261 266 263 261 255 246 241 240 239 238 238 241 244 246 255
351 334 311 301 286 287 289 209 283 268 200 93 50 59 325 234 68 32 37 35 34 35 10 339 327 355 326 254 270 312 294 322 36 28 49 31 33 17 1 356 352 351 345 338 332 308 303 312 300 260 243 243 236 228 228 229 230 226 228 228 230 232 234 235 232 231 231 235 238 240 244 247 252 253 252 254 254 253 255 256 258 259 262 267 265 263 259 252 242 239 236 234 235 239 242 239 242
349 335 309 301 269 244 292 244 244 279 84 85 59 57 38 27 44 36 40 52 48 30 342 304 291 349 313 292 341 318 331 41 37 16 34 32 20 356 357 355 354 352 343 328 328 329 304 306 308 287 259 249 243 234 231 234 236 233 234 232 232 234 235 237 234 233 233 236 239 243 246 249 254 257 257 256 256 255 256 256 258 259 261 266 267 264 259 256 247 241 237 233 232 237 241 236 234
354 358 311 306 275 201 272 218 246 314 28 61 78 54 49 44 42 34 37 70 72 35 344 332 340 140 339 355 355 313 4 28 36 27 33 37 18 357 358 358 359 353 345 335 330 337 318 298 299 298 280 261 250 243 239 240 244 242 242 241 239 237 235 235 235 236 236 236 239 245 248 249 251 253 255 255 258 258 257 255 256 256 259 263 265 266 260 258 254 247 242 235 232 236 239 235 234
352 344 289 301 323 244 296 262 295 42 38 4 68 63 52 43 40 20 25 90 82 56 21 352 10 342 59 66 342 340 2 337 32 32 31 24 9 1 358 356 359 354 350 344 334 336 330 310 298 296 289 273 259 251 247 244 247 248 249 250 248 244 239 237 239 241 239 241 242 245 249 251 252 252 253 255 258 260 259 256 255 252 253 260 264 267 263 259 257 254 250 241 233 236 239 235 234
329 311 252 249 288 317 315 266 11 80 55 353 48 58 49 41 35 354 356 84 96 92 47 9 18 328 318 168 38 85 37 22 38 31 25 11 2 3 3 358 359 356 355 353 347 338 323 315 309 301 293 281 265 257 255 251 250 251 253 253 253 251 246 242 246 247 243 245 247 248 250 252 252 252 253 255 258 261 260 256 255 254 253 257 263 267 264 258 257 255 254 250 238 236 241 237 230
324 315 219 224 281 286 270 270 47 70 26 1 49 49 42 39 26 344 358 49 115 97 63 57 24 319 324 340 32 62 52 54 43 21 16 7 5 9 9 6 2 357 357 2 360 341 317 310 308 306 298 287 274 264 259 257 256 254 256 256 255 253 250 248 250 251 248 248 249 250 250 251 252 251 252 255 256 258 259 257 256 258 258 258 260 263 263 261 260 257 253 252 244 239 241 237 228
309 318 126 303 292 208 252 99 53 52 60 31 71 57 39 37 14 356 1 5 68 52 77 91 26 342 25 349 37 55 48 46 27 18 17 17 18 16 17 16 9 2 1 3 358 335 316 314 313 312 306 297 287 277 267 262 260 257 257 258 259 256 253 252 253 254 253 254 253 252 252 252 254 252 253 254 254 255 257 260 259 258 258 258 259 261 263 264 265 264 259 250 245 242 241 237 227
224 210 23 314 295 255 250 120 83 73 103 96 97 86 54 35 7 6 342 338 45 5 41 69 35 24 345 344 70 52 38 29 17 21 19 18 19 19 21 20 14 10 8 6 2 347 329 325 323 322 319 312 302 289 278 269 264 261 257 257 262 261 258 258 258 258 256 257 256 253 252 254 257 255 255 255 255 257 258 261 263 262 260 258 259 262 266 267 267 268 266 255 245 241 241 236 224
213 179 300 314 291 262 262 102 98 110 99 87 89 81 52 38 9 344 331 351 20 44 38 33 80 41 328 9 69 51 35 25 21 18 11 9 11 16 19 17 15 14 14 11 7 2 351 341 335 332 330 325 318 304 289 276 268 263 258 256 261 263 263 263 263 262 260 259 259 255 251 252 254 256 258 260 261 261 261 262 264 265 264 262 261 264 267 267 267 267 266 259 247 239 240 234 222
289 191 208 314 281 273 357 80 100 109 95 105 95 72 38 24 6 347 8 2 6 66 39 0 49 10 325 67 85 55 36 28 24 15 7 6 5 9 12 10 7 10 12 8 7 5 0 353 345 339 336 333 329 321 308 288 273 265 260 257 258 262 263 264 263 263 262 263 265 262 255 252 252 255 260 262 264 264 264 265 265 266 267 265 264 263 263 265 268 267 266 260 249 239 236 233 225
325 293 345 295 281 337 20 46 95 103 106 123 96 73 13 350 41 21 7 1 24 55 41 2 360 309 326 72 103 46 34 26 22 14 10 12 12 13 12 10 10 10 7 5 6 5 2 357 351 344 338 334 330 328 323 309 288 273 265 262 259 260 261 263 264 263 263 264 267 266 262 257 255 254 257 260 263 263 265 266 266 266 265 263 262 261 260 264 268 270 268 259 248 239 233 231 225
343 320 356 293 284 360 16 333 78 101 119 106 78 84 345 22 50 25 346 17 46 49 38 3 316 310 6 33 35 38 33 24 21 15 13 16 22 24 23 23 22 21 18 16 15 12 9 2 356 349 342 336 332 329 326 321 309 292 278 272 267 262 260 261 264 265 265 266 267 267 266 262 258 255 258 260 262 262 263 265 266 266 261 257 258 258 260 264 268 270 271 258 244 236 230 227 222
336 329 2 278 284 5 27 335 31 49 87 82 68 62 15 70 64 38 8 33 58 57 60 16 335 336 18 22 23 22 24 22 22 18 17 21 26 28 29 28 25 25 25 24 21 18 15 10 4 355 348 342 336 330 325 322 316 308 295 283 276 270 265 262 263 264 265 266 267 268 267 267 264 261 262 259 259 261 263 265 264 262 258 254 254 256 259 263 267 269 271 260 245 237 230 226 220
340 326 292 273 290 23 40 341 27 35 78 86 92 6 44 86 68 58 45 40 66 57 101 41 15 19 38 40 29 17 23 23 24 22 23 27 29 29 28 28 26 25 25 24 22 18 15 13 9 4 357 348 341 333 326 320 315 311 306 297 288 279 272 267 266 265 264 264 265 267 268 269 266 263 262 258 257 259 262 264 261 258 255 254 253 254 257 261 265 266 268 260 246 238 230 227 222
345 321 310 280 292 39 12 358 49 23 66 105 159 49 58 90 72 83 56 38 104 45 65 51 45 63 61 54 41 33 30 28 28 28 29 29 29 29 27 27 25 24 23 22 21 18 13 11 10 8 4 356 348 339 330 323 317 312 308 304 297 288 279 272 268 267 266 265 264 265 266 267 265 261 260 257 256 257 260 260 257 255 252 252 254 255 256 258 263 264 266 258 244 236 230 227 223
341 328 314 268 268 76 2 352 40 5 4 51 82 54 50 67 59 84 321 221 112 62 53 59 66 67 62 57 45 42 37 34 33 32 32 28 27 28 25 24 23 21 19 18 16 14 12 10 8 6 5 2 356 347 338 330 321 316 312 308 302 294 286 279 274 269 267 267 266 265 264 265 263 258 257 257 256 255 257 256 254 253 251 252 254 256 257 258 262 264 264 254 242 235 233 228 221
308 296 303 288 337 66 329 344 22 5 14 9 20 44 41 40 34 357 318 136 85 66 55 64 75 66 59 54 46 45 41 38 36 35 33 27 25 25 24 21 20 18 14 13 12 11 9 8 7 4 3 3 0 354 346 338 330 323 318 312 308 301 293 286 281 275 270 267 266 266 264 262 261 257 255 254 255 255 254 253 251 251 251 252 254 255 257 259 261 263 260 250 240 234 232 226 218
279 333 310 309 26 21 327 358 3 1 13 2 10 19 24 53 29 332 44 84 68 59 49 62 73 65 59 50 45 44 41 39 37 36 34 28 24 21 22 19 18 17 11 10 10 10 9 6 6 5 3 1 1 359 352 345 338 329 324 317 312 308 303 296 288 282 276 270 266 265 264 262 260 257 253 252 252 254 252 251 250 248 247 250 252 252 254 256 256 257 256 247 239 232 227 220 213
358 38 289 332 28 349 353 358 349 11 17 4 356 340 2 66 44 300 85 89 66 58 54 59 66 62 63 52 45 44 41 40 37 37 36 31 26 20 19 16 14 13 9 7 8 8 7 5 3 4 3 0 0 358 355 352 345 336 330 323 316 311 307 303 297 289 282 276 270 265 262 261 259 255 252 250 249 249 249 248 246 244 245 248 249 247 250 252 252 253 247 239 235 230 222 214 208
359 118 191 111 331 285 45 340 346 27 21 353 312 318 10 40 56 3 57 94 73 64 71 73 73 66 65 58 47 43 42 40 35 37 36 32 28 23 19 15 12 10 7 5 6 6 4 4 2 2 1 1 360 357 355 355 351 346 340 332 323 315 309 306 302 297 289 281 274 268 262 259 257 256 252 249 249 247 244 244 242 242 244 244 243 242 244 246 248 243 228 227 227 222 215 206 200
296 216 97 79 329 290 50 321 9 41 10 323 315 10 5 309 86 56 55 90 84 79 86 82 83 79 73 65 52 44 40 38 33 32 31 30 26 23 19 14 11 8 7 5 5 4 1 1 1 1 359 359 359 356 354 352 350 348 345 338 330 322 314 308 303 300 296 289 280 270 264 259 255 254 252 248 248 245 241 240 239 241 240 237 238 239 238 238 238 226 214 215 213 210 207 199 192
252 209 97 66 335 311 23 316 37 53 348 318 346 27 312 216 99 79 75 88 90 93 93 88 86 84 82 72 59 49 40 36 32 29 27 26 24 21 17 14 9 5 6 4 4 3 0 359 358 358 358 358 357 356 353 349 347 345 343 340 335 328 320 312 306 302 299 296 289 277 266 258 255 252 250 246 244 242 237 237 238 238 235 233 234 234 233 228 223 215 209 209 204 200 199 194 189
201 221 113 87 312 305 320 316 37 55 313 320 315 293 255 174 115 99 95 94 94 94 93 94 90 82 79 73 64 55 47 41 33 30 28 25 22 18 16 15 10 5 4 1 1 0 358 357 355 355 354 354 354 353 350 348 346 343 340 338 334 330 324 316 310 304 299 297 293 288 276 262 254 251 249 245 243 241 237 237 237 234 229 229 229 227 227 218 209 204 201 201 197 192 190 188 184
196 176 125 136 231 257 281 280 13 256 233 334 306 253 206 147 120 112 109 106 103 102 100 98 96 86 77 70 67 60 50 44 35 29 27 25 21 16 14 13 9 6 2 357 357 356 354 354 353 353 351 349 350 349 347 345 344 341 339 335 331 328 324 319 314 308 301 296 293 293 288 275 260 251 249 245 241 239 238 235 229 224 220 221 222 219 217 208 201 195 189 189 189 186 185 182 179
198 74 164 209 204 190 231 241 191 205 222 3 332 282 133 127 116 113 119 117 114 111 108 105 103 94 81 71 64 59 53 47 37 25 22 24 19 14 10 9 7 4 360 356 356 353 351 351 350 351 349 347 347 345 343 341 340 338 335 333 330 326 322 318 315 311 306 299 294 292 292 286 272 258 251 245 241 236 235 231 223 219 215 214 215 213 210 203 197 191 184 182 183 183 180 178 177
225 331 288 264 242 191 201 226 184 173 299 6 351 327 157 156 147 126 126 124 123 116 111 110 101 94 87 79 66 57 55 47 38 26 20 20 17 10 4 5 3 359 357 355 355 352 349 349 347 348 347 345 344 343 341 338 338 335 331 331 329 326 321 317 314 311 308 303 298 295 293 290 283 271 258 248 244 238 234 232 226 217 211 210 210 209 206 202 196 191 187 184 182 178 174 177 180
254 315 302 245 224 191 194 220 190 172 288 352 338 311 184 170 188 143 136 129 127 121 115 113 100 94 88 85 78 60 55 44 38 32 21 15 15 7 360 1 357 353 354 351 350 349 349 348 346 346 344 343 341 340 338 336 335 332 329 328 327 325 321 317 313 309 308 305 302 300 296 292 286 278 267 255 245 240 238 236 227 214 207 207 207 205 200 196 193 189 187 185 182 177 175 178 182
288 313 286 203 183 184 199 207 190 183 244 337 312 311 201 187 163 134 135 133 129 124 118 116 101 94 87 83 85 69 55 40 36 37 23 13 14 5 356 358 353 349 349 346 347 348 349 347 344 344 342 340 338 335 333 332 332 331 328 326 324 324 322 318 315 310 307 305 304 302 299 294 287 280 273 264 251 242 239 237 230 218 209 205 204 201 195 192 188 183 182 183 182 178 174 175 178
276 253 220 162 164 197 203 199 192 195 184 321 308 339 232 200 150 129 134 139 132 124 118 113 98 91 87 77 80 73 62 41 31 34 21 10 9 3 353 352 350 347 346 345 346 347 348 345 341 341 339 337 335 331 329 328 328 328 326 324 323 322 321 320 318 315 310 307 306 304 303 298 291 285 278 271 260 247 239 235 232 225 214 206 202 196 191 188 185 182 181 182 183 182 180 179 178
258 203 217 198 200 191 183 187 184 190 180 192 249 288 259 173 131 131 136 140 127 119 112 107 100 94 92 81 76 64 63 48 30 25 18 7 3 358 350 348 349 348 348 346 345 344 343 339 335 335 334 334 332 329 328 325 324 324 323 323 323 321 319 319 319 318 315 312 310 308 307 304 299 293 284 274 263 251 242 235 231 227 220 209 199 192 188 186 184 183 183 182 183 183 183 184 184
236 208 270 225 239 149 169 187 181 183 213 190 200 266 290 83 128 136 131 135 123 120 118 110 108 99 96 84 77 57 54 48 28 19 14 6 360 354 347 345 347 348 347 343 341 341 338 334 332 330 329 329 327 326 326 324 321 321 320 320 321 320 318 318 317 316 316 314 313 312 310 308 305 301 294 281 267 255 244 237 232 228 223 211 196 190 188 185 185 184 184 184 183 182 182 184 187
222 202 277 296 353 278 173 203 191 171 283 198 172 231 284 110 139 134 127 139 127 123 124 116 111 101 100 86 82 61 44 41 21 12 12 5 355 350 345 342 345 344 342 339 338 337 333 332 331 329 326 324 321 319 320 319 318 317 316 316 317 317 317 317 316 314 314 314 313 313 312 311 308 305 302 290 276 263 250 240 235 226 221 215 198 190 189 188 187 186 186 187 184 182 182 183 185
261 25 319 310 308 301 254 236 205 171 173 226 225 235 259 163 147 144 140 144 129 128 128 122 117 108 110 94 79 58 38 38 9 360 8 2 349 347 345 344 345 342 340 337 336 334 330 329 329 327 325 323 322 320 317 315 314 313 311 311 311 312 314 314 313 311 311 313 314 314 314 315 314 310 305 299 291 279 261 245 238 229 219 217 201 188 188 188 188 188 187 188 187 183 181 182 184
311 322 333 304 302 305 288 260 194 189 189 236 273 257 252 173 148 154 151 144 131 130 129 125 122 115 111 86 73 60 35 30 354 345 3 359 348 347 346 347 347 343 340 338 336 333 330 330 328 325 323 324 324 322 319 315 313 311 309 308 306 307 308 309 311 307 306 309 312 314 315 316 319 316 309 305 303 295 275 251 239 233 220 219 210 191 186 186 186 188 186 186 188 186 184 184 182
310 308 316 296 298 283 276 269 172 218 260 255 259 261 256 204 158 160 155 141 131 130 130 128 123 115 104 86 82 71 45 7 322 337 6 356 344 343 344 345 345 341 339 338 335 332 332 332 329 326 325 325 323 321 319 318 315 312 310 309 306 304 303 304 306 303 301 303 308 312 313 315 320 320 316 310 308 306 291 265 243 232 221 220 216 196 186 187 186 185 185 184 184 185 186 183 178
293 289 273 262 266 262 269 272 146 132 313 267 275 279 271 260 182 164 156 138 135 139 141 136 127 122 110 101 107 129 175 198 324 358 11 351 340 344 346 345 342 339 339 338 334 333 334 334 330 328 327 324 322 320 319 318 314 312 310 308 307 304 302 300 300 300 297 298 304 308 308 312 318 320 319 315 311 312 304 284 258 234 218 216 213 200 189 188 187 186 184 183 182 181 182 182 177
265 259 258 256 255 259 274 280 137 121 107 260 279 271 263 266 193 157 155 149 152 152 144 138 132 127 116 117 135 157 132 47 343 4 4 349 346 349 347 345 341 338 339 338 335 334 334 333 330 326 321 319 320 322 319 315 312 309 306 304 303 302 299 295 293 294 293 294 299 300 302 311 316 318 319 317 313 312 311 303 282 245 219 214 209 199 193 190 188 186 182 181 183 181 181 181 176
256 249 253 254 251 281 297 293 124 104 355 259 269 263 262 270 179 155 161 155 147 139 131 130 128 123 125 133 131 90 51 19 340 343 351 348 347 348 346 344 341 337 336 337 334 332 329 326 324 321 319 318 321 322 319 315 312 309 306 301 297 294 293 290 287 288 288 289 292 293 297 306 312 316 319 318 313 309 309 310 302 271 231 217 208 198 196 194 189 186 183 181 182 183 181 178 178
238 239 250 256 267 6 280 283 29 327 302 270 275 270 265 270 152 150 151 131 118 116 114 115 120 125 141 146 122 85 39 5 339 323 334 342 343 346 348 345 341 336 335 335 332 328 324 322 320 318 320 321 320 319 316 314 312 309 306 302 295 288 287 288 286 286 285 285 289 289 292 300 308 315 318 318 313 306 304 305 307 295 253 224 212 201 197 195 192 189 186 182 178 177 177 179 183
256 257 266 267 307 347 274 306 328 312 289 265 288 288 256 188 160 161 130 120 128 133 133 131 137 147 158 148 110 82 41 7 324 301 319 334 337 346 352 348 340 335 334 332 328 325 322 320 319 320 322 321 318 316 313 313 314 311 308 305 300 292 289 289 286 286 286 286 288 287 289 295 304 312 317 317 312 304 299 296 299 303 284 240 216 207 199 195 193 190 186 183 179 175 174 178 183
279 285 33 14 353 327 302 311 318 311 281 222 54 317 270 162 163 171 138 149 161 158 163 154 150 159 157 122 82 59 22 342 302 301 318 324 336 350 354 347 337 333 330 325 322 321 323 323 323 324 324 320 317 314 312 314 315 313 309 305 302 298 294 290 286 287 287 287 287 286 288 292 298 307 313 315 313 306 297 291 290 296 299 269 220 209 207 197 192 190 186 184 184 181 175 173 179
274 230 76 40 327 289 280 288 296 277 262 255 76 303 279 189 178 177 161 173 173 170 173 153 154 160 134 100 81 60 342 309 294 298 309 325 346 354 349 341 335 329 322 318 320 325 328 325 323 323 322 320 317 312 311 314 316 313 309 304 300 297 294 290 288 288 288 287 286 286 286 287 292 301 309 314 315 312 300 290 288 287 295 292 245 211 209 203 195 193 191 188 187 185 179 174 178
241 208 124 50 274 266 259 260 254 247 272 275 235 227 261 266 220 179 167 173 177 178 172 152 162 153 114 102 92 61 313 293 290 299 315 341 354 350 340 334 332 325 319 319 326 330 328 324 320 320 320 318 316 312 310 313 318 316 310 304 299 294 293 293 292 290 287 287 285 283 281 281 285 292 303 312 315 316 308 293 289 287 285 292 288 240 214 209 203 197 195 192 188 186 185 181 179
207 202 209 226 243 250 247 249 247 251 276 271 223 195 250 265 218 157 162 173 185 183 171 163 158 130 114 109 90 12 294 287 306 324 342 353 353 343 332 328 325 321 318 322 327 326 324 322 320 318 318 317 316 315 315 318 322 317 308 302 299 296 294 294 293 289 286 287 285 282 278 275 277 282 294 306 311 317 315 300 290 290 284 283 294 289 240 215 208 203 197 194 190 186 188 187 181
277 319 280 246 241 239 235 234 243 254 259 263 243 187 222 271 167 146 169 184 191 183 166 160 143 124 123 110 86 286 285 311 332 345 357 355 347 335 327 322 320 318 318 324 325 324 323 322 319 318 318 318 318 319 320 321 321 317 312 309 308 305 301 298 294 288 283 282 283 281 277 269 267 274 287 298 305 314 317 310 296 288 289 282 284 295 280 231 211 207 200 194 192 188 189 190 186
348 334 291 275 256 238 225 214 223 264 252 263 261 197 207 262 179 162 189 186 173 172 158 147 135 127 131 124 195 294 340 351 348 358 358 347 336 328 322 319 320 322 326 330 327 326 325 322 319 319 319 319 319 320 321 320 317 315 314 314 312 308 305 304 303 298 292 286 282 281 276 267 262 269 282 290 297 309 315 314 309 296 291 289 281 287 294 265 222 209 203 197 193 191 190 191 190
37 327 293 315 297 253 243 208 169 240 248 272 8 29 220 247 227 165 179 129 140 155 149 138 135 137 139 134 354 5 5 354 358 3 350 338 330 325 322 321 324 328 332 330 327 327 327 324 321 320 321 320 320 320 320 318 314 312 312 312 311 309 306 306 306 303 302 300 295 290 279 265 262 265 270 284 291 300 311 314 316 309 297 294 288 284 292 289 252 214 201 197 193 193 193 190 190
170 246 285 311 327 312 286 303 162 230 244 173 75 36 295 242 257 191 170 143 125 129 126 129 135 136 124 66 25 11 359 1 8 358 338 332 325 322 323 325 327 329 329 326 324 326 327 325 323 322 321 320 320 320 320 318 315 312 311 311 311 310 310 309 306 303 302 302 299 297 286 265 258 261 261 277 290 292 302 311 315 316 307 298 292 287 288 291 276 230 202 196 192 192 193 191 190
189 213 194 196 324 316 278 270 243 250 242 183 107 23 292 243 267 206 162 141 122 118 118 126 124 114 100 67 46 5 7 17 5 345 332 325 319 320 324 328 328 327 327 326 326 326 324 323 323 322 320 321 322 321 320 318 315 313 311 309 308 308 310 310 308 305 302 299 295 297 295 276 256 257 262 274 287 290 293 301 311 316 313 305 295 289 286 288 284 251 210 198 194 192 192 191 191
210 180 131 170 157 232 259 255 244 274 277 245 226 353 248 217 286 156 131 121 120 123 127 125 117 118 126 128 82 24 15 15 353 337 330 318 316 322 326 328 328 326 326 328 327 324 323 323 324 323 321 321 322 321 320 319 317 315 313 310 306 305 306 307 306 305 304 303 302 303 304 297 275 260 262 272 282 286 287 292 303 311 314 310 299 291 285 283 289 271 222 200 197 197 193 191 190
250 90 85 199 187 218 262 276 200 275 301 273 213 223 218 154 80 109 117 125 131 138 142 127 116 115 107 78 49 26 10 360 342 333 324 315 318 323 325 325 324 325 327 328 325 324 325 327 327 324 319 318 319 320 319 317 317 315 313 311 309 307 306 307 306 306 307 306 306 304 304 305 301 284 266 266 277 280 282 286 294 304 312 313 302 296 289 280 289 285 237 200 195 199 195 191 190
156 74 155 230 201 149 260 298 359 64 297 273 192 249 264 124 137 139 132 145 151 155 148 124 112 87 74 62 37 19 6 351 336 328 318 315 322 326 327 326 324 327 328 326 324 324 326 328 326 322 317 316 318 319 318 317 317 316 312 310 309 308 307 306 305 306 308 307 304 301 298 300 308 306 286 268 272 277 277 279 289 299 306 313 308 299 294 284 286 292 258 204 192 197 194 190 189
128 171 197 208 21 84 134 290 360 39 271 264 180 234 245 176 217 179 155 172 172 156 130 118 117 95 82 47 23 11 1 344 329 325 319 320 325 327 325 322 321 326 327 324 322 322 323 325 324 320 317 316 317 319 319 319 318 316 313 310 308 307 305 304 303 305 307 308 305 301 300 300 303 309 303 284 271 272 273 273 282 295 301 309 311 304 297 288 284 293 278 220 192 193 194 188 188
119 207 210 94 210 233 139 160 237 243 266 274 246 246 232 195 201 179 181 192 171 127 98 97 74 64 55 17 14 358 345 334 327 325 322 321 321 320 318 316 319 325 325 322 321 320 320 320 320 317 314 315 316 316 317 316 315 314 312 309 307 306 305 304 303 305 306 306 306 306 306 305 302 305 310 301 281 270 271 272 276 289 298 302 308 306 301 292 283 289 282 237 197 193 196 189 187
70 10 325 97 176 209 169 158 182 231 265 282 285 282 253 192 189 167 174 173 137 112 94 93 25 39 49 21 358 338 332 328 327 325 320 320 319 317 314 314 320 324 322 321 320 319 318 317 317 316 316 318 317 316 315 314 313 312 310 308 306 305 305 304 303 303 304 303 305 307 305 303 302 303 309 310 298 279 269 271 275 281 289 296 302 305 304 297 286 287 285 248 201 191 196 191 187
149 180 214 204 182 162 220 225 155 202 252 269 286 284 266 166 160 130 133 131 129 128 127 150 160 90 67 24 339 331 331 325 326 325 320 320 318 315 313 315 321 322 320 319 319 319 318 317 318 318 317 318 318 317 317 315 313 312 310 308 306 305 304 304 303 301 301 301 301 303 303 303 302 301 303 307 307 294 276 268 271 276 282 289 296 299 302 300 289 283 287 266 210 189 192 191 186
185 200 200 202 192 157 229 253 185 173 241 227 258 274 267 201 211 122 117 133 137 130 149 189 158 101 69 355 342 333 329 326 325 323 321 319 315 314 316 321 323 322 320 320 322 321 319 320 324 321 318 317 318 319 318 315 313 312 311 309 307 306 304 303 303 300 299 299 299 299 302 303 301 301 302 302 304 304 292 273 264 267 278 285 292 296 297 297 289 279 283 278 232 193 190 192 185